Natathlon (1) - Lyonnais (4)

Régionale

VÉNISSIEUX

Du Samedi 11 Decembre 2004 au Dimanche 12 Decembre 2004

Bassin de 25m

50 Dos Messieurs

Séries

Nom Année Club Pays Temps Points Niv.
1 CATY Matthieu 1992 VILLEURBANNE NATATION FRA 0:33:62 883
2 NEEL Vincent 1992 EMS BRON FRA 0:34:62 829
3 REBAUD Thomas 1992 EMS BRON FRA 0:34:67 827
4 CESPEDES Anthony 1992 UJS LA MULATIÈRE NATATION FRA 0:35:11 803
5 DANJOUX Cédric 1992 CMO VÉNISSIEUX FRA 0:35:54 781
6 DURAND Florent 1992 TRITON CLUB BELLEVILLE FRA 0:36:95 711
7 ROBERTO Vincent 1992 CMO VÉNISSIEUX FRA 0:37:13 702
8 DOUX Victor 1992 UJS LA MULATIÈRE NATATION FRA 0:37:32 693
9 CHEVRIER Kevin 1992 AC DÉCINES FRA 0:37:37 690
10 MESSONNIER Julian 1992 VIENNE DISTRICT NATATION FRA 0:37:61 679
11 ZIDI Billal 1992 CMO VÉNISSIEUX FRA 0:38:01 660
12 PAYET BERNOUD Loïc 1993 CMO VÉNISSIEUX FRA 0:38:37 643
13 SCHALL Aurelien 1992 VILLEURBANNE NATATION FRA 0:38:80 623
14 BRAS Hugo 1992 VILLEURBANNE NATATION FRA 0:38:97 615
15 RODRIGUEZ Johan 1992 EMS BRON FRA 0:39:05 612
16 SENKEVICH Ilya 1992 CMO VÉNISSIEUX FRA 0:39:08 610
17 THOUY Adrien 1992 ND VILLEFRANCHE-EN-BEAUJOLAIS FRA 0:39:20 605
18 RANNOU Olivier 1992 RILLIEUX NATATION FRA 0:39:68 583
19 SANCHEZ Quentin 1992 EMS BRON FRA 0:39:78 579
20 MESTRALLET Louis 1992 ASPTT LYON FRA 0:39:80 578
21 CATALA Thomas 1992 SAL ST-PRIEST NATATION FRA 0:40:06 567
22 KERCHOUNI Yanis 1992 AC DÉCINES FRA 0:40:09 565
23 PHILIPPE Adrien 1992 TRITON CLUB BELLEVILLE FRA 0:40:42 551
24 TOURNADRE Yoan 1992 ASPTT LYON FRA 0:40:45 550
25 BORREANI Jonathan 1993 VIENNE DISTRICT NATATION FRA 0:40:48 548
26 CLEMENT Corentin 1992 ASPTT LYON FRA 0:40:48 548
27 FERNANDEZ Thomas 1993 CHASSIEU NATATION FRA 0:41:23 517
28 HARZELLI Ilhyes 1992 CMO VÉNISSIEUX FRA 0:41:29 514
29 WECKX Thomas 1993 CHASSIEU NATATION FRA 0:41:54 504
30 SEGUY Guillaume 1992 SAUVETEURS GIVORS FRA 0:41:64 500
31 EXIGA Sébastien 1993 CMO VÉNISSIEUX FRA 0:41:76 495
32 RIBAUD Jérôme 1992 CHASSIEU NATATION FRA 0:42:22 476
33 LAFORET Cyprien 1993 LYON NATATION FRA 0:42:37 470
34 GUEZE Thomas 1992 LYON NATATION FRA 0:42:38 470
35 LULLIER Massimo 1992 SAL ST-PRIEST NATATION FRA 0:42:55 463
36 BALAY Alexis 1992 AS CALUIRE FRA 0:42:68 458
37 EL GUERFI Ramzi 1992 CMO VÉNISSIEUX FRA 0:42:83 452
38 LEBDIRI Yacine 1993 LYON NATATION FRA 0:42:95 447
39 BOUCHE Kévin 1993 CMO VÉNISSIEUX FRA 0:43:22 437
40 BACHELET Quentin 1993 VILLEURBANNE NATATION FRA 0:43:44 429
41 GENY DE FLAMMERECOURT Victor 1993 TRITON CLUB BELLEVILLE FRA 0:43:47 428
42 GUERCHE Manuel 1992 CHASSIEU NATATION FRA 0:43:82 414
43 CLAUSS Grégor 1992 CMO VÉNISSIEUX FRA 0:43:96 409
44 DUONG Kenny 1992 CHASSIEU NATATION FRA 0:44:05 406
45 CHOPIN Thomas 1993 TRITON CLUB BELLEVILLE FRA 0:44:41 393
46 BOCQUELET David 1993 CMO VÉNISSIEUX FRA 0:44:48 390
47 LEVIVIER FAYOLLE Clément 1992 LYON NATATION FRA 0:44:59 386
48 DUMOULIN Jean 1992 AS CALUIRE FRA 0:44:61 385
49 NASHAWATI Olivier 1992 CN TARARE FRA 0:44:97 373
50 DIAS Guillaume 1992 VILLEURBANNE NATATION FRA 0:45:17 365
51 LAENNEC Thibaut 1992 ASPTT LYON FRA 0:45:22 364
52 D'ALETTO Enzo 1993 EMS BRON FRA 0:45:48 355
53 BONNEVILLE Gauvin 1992 ASPTT LYON FRA 0:45:64 349
54 CURTET Fabien 1993 ASPTT LYON FRA 0:45:66 348
55 HUBERT Neals 1993 SAL ST-PRIEST NATATION FRA 0:46:18 331
56 MOTTI Pierre 1993 AS CALUIRE FRA 0:46:25 329
57 SERMET Kevin 1993 EMS BRON FRA 0:46:36 325
58 MOREAU Mathieu 1993 LYON NATATION FRA 0:46:37 325
59 VIEILLY Harold 1993 ASPTT LYON FRA 0:46:42 323
60 SPERANDIO Aurelien 1993 ND VILLEFRANCHE-EN-BEAUJOLAIS FRA 0:46:73 313
61 LIENHART Jean-Baptiste 1993 EMS BRON FRA 0:47:25 296
62 AGAB Yacine 1993 SAL ST-PRIEST NATATION FRA 0:47:25 296
63 VALLET Alexandre 1993 VIENNE DISTRICT NATATION FRA 0:47:44 290
64 BRAHMI Atman 1992 SAUVETEURS GIVORS FRA 0:47:50 288
65 ZAGHAR Emir 1993 VILLEURBANNE NATATION FRA 0:47:64 284
66 DEWEERDT Maxime 1993 AS CALUIRE FRA 0:47:97 274
67 LANIER Quentin 1993 VIENNE DISTRICT NATATION FRA 0:48:06 271
68 MOUSSALEM Wissem 1993 LYON NATATION FRA 0:48:07 271
69 HARISLUR Clement 1992 LYON NATATION FRA 0:48:39 261
70 LESNE Benoît 1992 ASPTT LYON FRA 0:48:49 258
71 MOURET Fabien 1993 AC DÉCINES FRA 0:48:97 244
72 BOUAMRANE Nabil 1993 VILLEURBANNE NATATION FRA 0:49:42 232
73 GUIRAUD Maxime 1993 CHASSIEU NATATION FRA 0:49:85 220
74 PERRIN Gaëtan 1993 ND VILLEFRANCHE-EN-BEAUJOLAIS FRA 0:49:87 219
75 SALIGNAT Cyril 1993 CMO VÉNISSIEUX FRA 0:51:55 176
76 VIGNOUD Gaëtan 1993 VILLEURBANNE NATATION FRA 0:51:95 166
77 BERBERIAN Boris 1992 AC DÉCINES FRA - Disq.
78 AIMOND Antoine 1992 LYON NATATION FRA - Disq.
79 BRUN Nicolas 1993 TRITON CLUB BELLEVILLE FRA - Disq.
80 CROS Pierre-Louis 1993 ASPTT LYON FRA - Disq.
81 BOUCHER Kieran 1992 AS CALUIRE FRA - Disq.